Location: ??
(35.3382°N, 139.5242°E)
Time: 05:26:31
(UTC+00:00)

Daily predictions for brighter satellites

Satellite Brightness Start Highest point End
(mag) Time Altitude Azimuth Time Altitude Azimuth Time Altitude Azimuth
SL-24 R/B 4.1 08:59:24 10° SSE 09:03:41 78° ENE 09:08:09 10° N
SL-16 R/B 3.1 08:58:35 10° NNW 09:04:06 55° WSW 09:09:36 10° S
SKYMED 2 4.3 09:00:09 10° N 09:04:27 60° WNW 09:08:42 10° SSW
DELTA 2 R/B (1) 3.9 08:59:08 10° WNW 09:04:38 62° N 09:10:08 10° E
GP-B 3.1 09:00:30 10° N 09:04:57 73° E 09:09:22 10° S
USA 234 4.2 09:00:30 10° ENE 09:05:47 26° ESE 09:11:03 10° S
Cosmos 1544 3.1 09:02:13 10° S 09:05:53 87° W 09:09:32 10° N
Cosmos 2263 Rocket 2.2 09:01:48 10° SSW 09:07:21 88° ESE 09:12:57 10° NNE
Cosmos 1975 2.9 09:04:08 10° S 09:08:09 61° E 09:12:11 10° NNE
CZ-2C R/B 1.0 09:06:35 10° WSW 09:10:14 68° S 09:13:39 10° E
CZ-2C R/B 3.6 09:05:40 10° SE 09:10:24 39° ENE 09:15:24 10° N
Cosmos 923 Rocket 4.0 09:05:42 10° NNW 09:10:57 83° ENE 09:16:08 10° SSE
Meteor 2-9 Rocket 4.3 09:06:07 10° S 09:11:53 63° E 09:17:38 10° NNE
CZ-4 R/B 1.5 09:07:45 10° SSE 09:11:54 62° ENE 09:16:04 10° N
Cosmos 1844 Rocket 4.0 09:11:12 10° SE 09:14:45 17° E 09:18:18 10° ENE
Cosmos 1782 Rocket 3.5 09:15:27 10° S 09:19:47 66° E 09:24:11 10° NNE
Cosmos 1908 Rocket 4.3 09:17:40 10° SSW 09:21:56 58° W 09:26:14 10° N
BREEZE-M DEB (TANK) 2.8 09:20:04 10° SSW 09:22:32 53° SE 09:28:01 10° NE
Cosmos 1842 3.2 09:23:39 10° N 09:27:29 59° E 09:31:18 10° SSE
Cosmos 1943 3.4 09:24:02 10° N 09:29:31 50° ENE 09:34:59 10° SE
Cosmos 1898 Rocket 4.4 09:25:31 10° SSW 09:30:33 53° WNW 09:35:38 10° N
NOSS 2-2 (E) 3.6 09:28:43 10° SW 09:32:10 59° WNW 09:35:46 10° NNE
ISS -2.9 09:30:35 10° WSW 09:33:53 51° NW 09:37:10 10° NE
CSL-04 Debris 4.1 09:30:38 10° SSE 09:35:57 67° ENE 09:41:19 10° N
ATLAS 2AS CENTAUR R/B 4.2 09:32:16 10° SE 09:36:43 16° ESE 09:41:14 10° ENE
NOSS 2-2 (D) 3.5 09:37:16 10° SW 09:40:45 63° WNW 09:44:20 10° NNE
Cosmos 1707 3.6 09:37:27 10° NNE 09:40:47 28° ENE 09:42:35 19° ESE
Cosmos 1437 2.4 09:38:24 10° N 09:41:23 71° E 09:44:21 10° SSE
GOES 2 Rocket 4.4 09:38:32 10° SW 09:41:46 21° SSE 09:43:37 17° SE
SJ-6B 4.5 09:42:28 15° ENE 09:42:28 15° ENE 09:44:23 10° NNE
Cosmos 1464 Rocket 4.1 09:38:36 10° SSE 09:44:30 52° E 09:50:25 10° NNE
CSL-04 Rocket 3.6 09:39:28 10° SSE 09:44:50 77° ENE 09:50:19 10° N
Meteor 1-21 4.1 09:39:55 10° N 09:45:32 78° E 09:51:06 10° SSE
Cosmos 2084 Rocket 3.6 09:42:05 10° NNW 09:46:31 59° NE 09:49:40 19° SE
Cosmos 372 Rocket 3.9 09:41:28 10° S 09:46:40 68° ESE 09:51:52 10° NNE
Cosmos 1975 Rocket 2.9 09:45:03 10° N 09:49:23 78° E 09:53:41 10° S
Cosmos 1603 3.7 09:44:00 10° NNW 09:49:41 89° ENE 09:55:17 10° SSE
IRIS 4.2 09:46:50 10° SW 09:50:40 60° SSE 09:51:39 35° E
Cosmos 2150 Rocket 4.2 09:48:52 10° S 09:53:56 47° ESE 09:59:07 10° NNE
Sich 1 Rocket 3.9 09:56:21 10° SSW 10:00:48 71° W 10:05:19 10° N
MOS 1 Rocket 3.2 09:56:31 10° N 10:00:55 75° WNW 10:05:10 10° SSW
HJ-1C 3.6 09:58:09 10° S 10:01:24 67° W 10:04:41 10° NNW
Cosmos 1125 Rocket 4.0 09:58:17 10° SSE 10:03:06 36° E 10:07:56 10° NE
USA 186 2.7 10:03:57 30° NE 10:03:57 30° NE 10:06:06 10° N
MINOTAUR IV R/B 4.5 09:59:31 10° NNW 10:04:01 83° ENE 10:07:08 20° SSE
Cosmos 1891 Rocket 4.5 10:05:51 10° S 10:12:02 84° W 10:18:09 10° N
SL-08 RB Rocket 3.6 10:15:55 30° SSE 10:18:09 71° ENE 10:22:43 10° N
Okean 2 Rocket 3.4 10:15:26 10° SSW 10:19:55 70° W 10:24:24 10° N
H-2A R/B 2.7 10:18:01 10° S 10:22:48 53° W 10:27:42 10° NNW
USA 102 4.3 10:23:05 57° SSE 10:24:23 88° ENE 10:29:48 10° NNW
Cosmos 1300 Rocket 4.3 10:25:52 10° SSW 10:30:08 53° W 10:34:27 10° N
NOSS 3-2 (A) 4.5 10:23:22 10° NNW 10:30:44 45° NE 10:33:14 37° E
ARGOS 3.5 10:26:34 10° S 10:31:50 62° WSW 10:37:10 10° NNW
Milstar 3 Cent rocket 3.0 10:26:57 10° SW 10:32:31 31° S 10:32:39 31° SSE
In-Cosmos 22 3.9 10:28:31 10° N 10:33:50 87° E 10:36:11 35° S
Cosmos 1048 Rocket 4.3 10:31:44 10° N 10:36:39 48° ENE 10:36:39 48° ENE
CZ-2C R/B 2.9 10:35:46 10° N 10:41:18 72° WNW 10:46:52 10° SSW
Cosmos 2034 Rocket 4.2 10:35:26 10° SSW 10:41:47 75° W 10:48:10 10° N
Nadezhda 4 Rocket 3.8 10:37:45 10° N 10:43:54 84° E 10:46:12 41° SSE
Cosmos 1844 3.7 10:42:25 10° SSW 10:48:09 82° WNW 10:53:51 10° NNE
USA 234 3.4 10:42:32 10° NE 10:49:03 73° NW 10:55:34 10° SW
MOS 1 4.2 10:47:43 48° S 10:49:24 85° WSW 10:55:09 10° NNW
CZ-2C R/B 2.7 10:46:19 10° W 10:48:13 29° W 10:48:13 29° W
DELTA 2 R/B (1) 3.6 10:45:41 10° WNW 10:51:09 62° SSW 10:51:27 61° S
Ariane Rocket 3.3 10:51:52 44° SSW 10:53:18 63° WSW 10:58:20 10° NNW
Cosmos 1536 Rocket 3.9 10:49:03 10° NNW 10:53:04 65° NW 10:53:04 65° NW
Exosat Rocket 3.8 10:49:25 10° SSW 10:55:37 73° WNW 11:00:41 10° NNE
Cosmos 1844 Rocket 3.4 10:52:42 10° SW 10:58:07 52° WNW 11:03:33 10° N
Longmarch 3A Rocket 4.3 10:56:31 10° SW 10:56:42 12° SW 10:56:42 12° SW
Cosmos 1025 Rocket 4.4 11:00:40 10° NNW 11:04:41 36° W 11:05:23 34° WSW
NOSS 3-2 (C) 4.4 10:57:53 10° NNW 11:05:20 48° NE 11:05:47 47° ENE
SPOT 3 Rocket 4.3 11:09:37 44° N 11:09:37 44° N 11:13:07 10° N
Cosmos 1634 Rocket 4.2 11:15:59 61° N 11:15:59 61° N 11:20:58 10° N
ATLAS 2AS CENTAUR R/B 2.9 11:18:51 10° SSW 11:26:43 90° SE 11:34:44 10° NNE
Resurs 01 Rocket 4.1 11:35:01 17° NNW 11:35:01 17° NNW 11:36:04 10° NNW
CENTAUR R/B 3.2 11:35:33 10° NNW 11:43:13 71° NNE 11:43:13 71° NNE
ATLAS 3B R/B 4.3 11:44:20 10° N 11:47:58 24° NNE 11:47:58 24° NNE
